Flag for Germany Past Weather in Garmisch-Partenkirchen, Bavaria, Germany — Yesterday and Last 2 Weeks

Now
63 °F

Low clouds.


Feels Like: 63 °F
Forecast: 58 / 62 °F
Wind: 3 mph from Southeast

Location: Innsbruck-Flughafen

Current Time: Jun 26, 2016 at 1:20:47 AM

Latest Report: Jun 26, 2016 at 12:50 AM


Visibility: N/A

Pressure: 30.07 "Hg (27.69 "Hg at 699m altitude)

Humidity: 94%

Dew Point: 61 °F

Location of Garmisch-PartenkirchenLocation

Past Weather in Garmisch-Partenkirchen — Graph

°F

Garmisch-Partenkirchen Temperature Yesterday

Maximum temperature yesterday: 86 °F (at 2:50 PM)
Minimum temperature yesterday: 61 °F (at 5:20 AM)
Average temperature yesterday: 70 °F

High & Low Weather Summary for the Past Weeks

 TemperatureHumidityPressure
High93 °F (Jun 24, 2:50 PM)100% (Jun 12, 12:20 AM)30.33 "Hg (Jun 12, 12:20 AM)
Low50 °F (Jun 17, 5:50 AM)20% (Jun 24, 2:50 PM)29.50 "Hg (Jun 16, 5:50 PM)
Average64 °F75%29.96 "Hg
* Reported Jun 10 11:20 PM — Jun 25 11:50 PM, Garmisch-Partenkirchen, Weather by CustomWeather, © 2016

Note: Actual official high and low records may vary slightly from our data, if they occured in-between our weather recording intervals... More about our weather records

Advertising

Garmisch-Partenkirchen Weather History for the Previous 24 Hours

Scroll right to see more
 ConditionsComfort  
Time TempWeatherWind HumidityBarometerVisibility
11:50 PM
Sat, Jun 25
63 °FSprinkles. Passing clouds.3 mph88%30.07 "HgN/A
11:20 PM64 °FRain showers. Passing clouds.12 mph83%30.07 "HgN/A
10:50 PM66 °FPassing clouds.2 mph83%30.04 "HgN/A
10:20 PM66 °FPassing clouds.2 mph83%30.04 "HgN/A
9:50 PM66 °FBroken clouds.3 mph83%30.01 "HgN/A
9:20 PM66 °FBroken clouds.3 mph83%30.01 "HgN/A
8:50 PM66 °FBroken clouds.3 mph88%30.01 "HgN/A
8:20 PM68 °FPartly sunny.2 mph83%29.98 "HgN/A
7:50 PM68 °FPartly sunny.5 mph83%29.98 "HgN/A
7:20 PM68 °FPartly sunny.2 mph83%29.95 "HgN/A
6:50 PM66 °FBroken clouds.3 mph88%29.95 "HgN/A
6:20 PM66 °FSprinkles. Broken clouds.3 mph83%29.95 "HgN/A
5:50 PM66 °FBroken clouds.6 mph83%29.98 "HgN/A
5:20 PM66 °FPartly sunny.9 mph78%29.92 "HgN/A
4:50 PM73 °FThunderstorms. Broken clouds.23 mph53%29.92 "HgN/A
4:20 PM81 °FBroken clouds.32 mph39%29.83 "HgN/A
3:50 PM86 °FPartly sunny.13 mph46%29.80 "HgN/A
3:20 PM86 °FPartly sunny.13 mph46%29.80 "HgN/A
2:50 PM86 °FPartly sunny.15 mph46%29.83 "HgN/A
2:20 PM84 °FPartly sunny.15 mph51%29.83 "HgN/A
1:50 PM82 °FPartly sunny.9 mph51%29.86 "HgN/A
1:20 PM82 °FScattered clouds.9 mph51%29.89 "HgN/A
12:50 PM81 °FScattered clouds.7 mph54%29.89 "HgN/A
12:20 PM81 °FScattered clouds.5 mph54%29.92 "HgN/A
11:50 AM81 °FScattered clouds.3 mph54%29.92 "HgN/A
11:20 AM77 °FScattered clouds.3 mph61%29.92 "HgN/A
10:50 AM75 °FPassing clouds.3 mph65%29.95 "HgN/A
10:20 AM73 °FPassing clouds.8 mph65%29.95 "HgN/A
9:50 AM72 °FPassing clouds.10 mph73%29.98 "HgN/A
9:20 AM70 °FPassing clouds.14 mph73%29.98 "HgN/A
8:50 AM70 °FPassing clouds.13 mph73%29.98 "HgN/A
8:20 AM68 °FScattered clouds.14 mph78%29.98 "HgN/A
7:50 AM66 °FScattered clouds.12 mph83%29.98 "HgN/A
7:20 AM64 °FScattered clouds.9 mph88%30.01 "HgN/A
6:50 AM63 °FPartly sunny.6 mph94%30.01 "HgN/A
6:20 AM63 °FScattered clouds.5 mph94%30.01 "HgN/A
5:50 AM61 °FPassing clouds.3 mph94%30.01 "HgN/A
5:20 AM61 °FCool.5 mph94%30.01 "HgN/A
4:50 AM63 °FMild.2 mph94%30.01 "HgN/A
4:20 AM63 °FMild.5 mph94%30.01 "HgN/A
3:50 AM63 °FPassing clouds.3 mph94%30.04 "HgN/A
3:20 AM64 °FPassing clouds.5 mph88%30.04 "HgN/A
2:50 AM64 °FMild.6 mph94%30.04 "HgN/A
2:20 AM64 °FMild.7 mph94%30.04 "HgN/A
1:50 AM66 °FStrong thunderstorms. Overcast.5 mph88%30.07 "HgN/A
1:20 AM68 °FThundershowers. Overcast.5 mph78%30.07 "HgN/A
Weather by CustomWeather, © 2016

See weather overviewHow to use our weather pages